Temperature
5 4 3 4 4 5 5 5 5 6 7 7 7 7 8 8 8 8 8 9 9 10 11 11 11 12 12 12 12 12 12 12 12 12 12 12 12 12 13 13 13 13 13 13
4 4 5 5 6 6 5 5 5 6 7 8 7 7 8 8 8 8 8 9 9 10 10 10 11 11 12 12 12 12 12 12 12 12 12 12 12 12 12 12 12 12 13 13
4 5 6 6 6 6 6 5 5 6 7 7 7 7 7 8 8 8 8 8 8 9 9 10 10 11 11 11 11 12 11 11 12 12 12 12 12 12 12 12 12 12 12 12
5 5 6 6 6 6 6 7 7 7 6 6 6 6 7 7 7 8 7 7 8 8 9 9 10 10 11 11 11 11 11 11 11 11 11 11 11 11 12 12 12 12 12 12
5 6 6 6 7 7 6 7 7 7 6 6 6 6 6 7 7 7 7 7 7 8 8 8 9 9 10 10 10 11 11 11 11 11 11 11 11 11 11 11 11 11 11 12
6 7 7 7 7 7 7 7 7 6 6 6 6 6 6 6 6 6 6 6 6 7 7 8 8 9 9 9 10 10 10 10 10 10 11 11 11 11 11 11 11 11 11 11
6 6 7 7 7 7 7 6 6 6 6 6 6 6 6 6 6 6 6 5 5 6 6 7 8 8 8 9 9 9 10 10 10 10 10 10 10 10 11 11 11 11 11 11
5 5 7 7 7 7 7 6 6 7 7 7 7 6 6 6 6 5 5 5 5 5 6 6 6 7 7 8 8 9 9 9 10 10 10 10 10 10 10 10 10 10 10 11
6 6 7 8 8 8 7 7 7 7 7 6 6 6 6 6 6 5 5 5 4 4 5 5 6 6 7 7 8 8 8 9 9 9 9 9 9 10 10 10 10 10 10 10
6 6 7 8 8 8 7 7 6 7 7 7 7 6 6 6 5 5 5 4 4 4 4 5 5 6 6 7 7 8 8 8 8 8 9 9 9 9 9 9 9 10 10 10
7 6 7 7 7 7 7 7 7 7 7 7 7 6 6 5 5 5 4 4 4 4 4 4 4 5 6 6 7 7 8 8 8 8 8 8 8 8 9 9 9 9 9 9
7 6 6 7 8 8 8 8 7 7 6 6 6 6 6 5 5 5 4 4 4 4 4 4 5 5 6 6 6 7 7 7 7 7 8 8 8 8 8 8 8 9 9 9
7 6 6 7 7 7 8 7 7 7 6 5 5 6 5 5 5 5 4 4 4 4 4 4 5 5 5 5 6 6 6 6 7 7 7 7 7 8 8 8 8 8 8 8
8 6 6 7 7 7 7 7 7 6 5 6 6 6 5 5 4 4 4 4 4 4 4 4 4 4 5 5 5 5 6 6 6 6 6 7 7 7 7 7 7 7 7 7
7 6 7 7 7 8 7 7 7 7 7 6 6 6 5 5 4 4 4 4 4 4 4 4 4 4 4 5 5 5 5 5 5 5 6 6 5 6 6 6 6 6 6 6
6 7 6 7 8 7 7 7 7 7 7 6 6 6 5 5 5 4 4 4 4 4 4 4 4 4 4 4 4 4 4 4 4 4 5 5 5 5 5 5 5 5 5 5
6 6 6 6 7 7 6 6 6 7 7 7 6 6 5 4 4 4 4 4 4 4 4 4 4 3 3 3 3 3 3 3 3 3 3 4 4 4 4 4 4 4 4 4
6 5 4 5 6 7 7 7 7 7 6 6 6 5 5 5 5 5 5 5 4 4 4 3 3 3 3 3 3 3 3 3 3 3 2 2 2 2 3 3 3 3 3 3
6 6 5 5 6 6 7 7 7 6 6 6 5 5 4 4 4 4 4 4 4 4 3 3 3 3 2 2 2 2 2 2 2 2 2 1 1 1 1 1 1 2 2 2
5 5 4 5 7 7 8 7 7 7 6 6 5 4 4 4 3 3 4 4 4 3 3 3 2 2 2 2 2 2 2 1 1 1 1 0 0 0 0 0 0 0 0 0
6 5 4 5 6 6 6 6 6 6 6 6 6 5 5 4 4 5 4 4 3 3 3 2 2 2 2 1 1 1 1 1 0 0 -0 -0 -0 -1 -1 -1 -1 -1 -1 -1
5 5 5 4 5 6 6 5 5 5 6 6 6 6 5 5 5 4 4 3 3 3 2 2 2 1 1 1 0 0 0 -0 -1 -1 -1 -1 -1 -1 -1 -2 -2 -2 -2 -2
4 4 4 4 5 6 6 6 7 7 7 6 6 6 6 5 4 4 3 3 2 2 2 1 1 1 0 -0 -0 -1 -1 -1 -1 -1 -1 -2 -2 -2 -2 -2 -2 -3 -3 -3
4 3 3 4 4 5 6 7 7 7 7 7 6 6 5 5 4 3 3 2 2 2 1 1 0 0 -0 -1 -1 -1 -2 -2 -2 -2 -2 -2 -3 -3 -3 -3 -3 -4 -4 -4
4 4 3 3 4 4 6 7 7 6 6 6 5 5 5 4 4 3 2 2 2 1 1 0 -0 -1 -1 -1 -2 -2 -2 -3 -3 -3 -3 -3 -4 -4 -4 -4 -4 -5 -5 -5
2 3 3 4 5 4 6 7 7 6 6 5 5 4 4 3 3 3 2 2 1 0 -0 -1 -1 -1 -2 -2 -2 -3 -3 -4 -4 -4 -4 -4 -5 -5 -5 -5 -5 -5 -5 -5
Wind_Speed
3 2 5 8 10 8 6 8 13 13 10 8 11 15 15 11 9 8 8 7 8 8 7 4 3 3 4 5 6 7 7 6 5 4 5 5 6 6 7 7 8 11 12 14
2 6 10 8 7 9 10 11 12 12 7 7 9 13 11 9 8 7 7 6 6 5 4 2 1 1 3 5 6 6 6 6 6 5 4 3 4 4 6 6 7 9 9 10
6 6 5 6 8 8 10 10 9 9 10 6 6 7 6 6 5 3 3 3 3 3 2 2 1 0 2 4 4 4 4 4 6 5 4 4 3 3 5 6 7 7 8 8
6 6 6 6 8 7 8 7 9 9 6 4 3 5 6 8 7 7 7 6 5 4 3 3 3 2 1 1 2 3 2 2 3 4 5 6 5 5 5 6 6 6 6 7
5 4 5 6 6 6 6 4 6 6 5 5 2 2 6 8 8 10 9 8 7 6 4 4 5 4 4 3 2 2 1 1 1 3 5 5 4 3 4 5 7 6 6 6
6 4 4 4 4 5 4 3 4 3 1 2 2 1 4 7 9 10 9 10 10 8 8 9 9 9 9 9 7 4 3 2 1 0 2 3 4 4 5 6 7 6 4 4
3 3 3 3 2 2 1 0 2 2 1 1 2 1 3 7 8 8 9 11 11 11 12 12 13 12 11 11 9 8 7 5 3 3 2 2 3 3 4 5 6 6 4 3
2 4 3 3 3 2 2 2 2 0 0 1 3 3 4 7 7 8 9 10 12 13 13 14 13 12 12 12 11 10 10 9 9 7 6 5 4 3 2 2 3 3 3 3
1 3 3 3 4 2 1 2 3 1 0 1 2 2 2 6 8 10 11 12 12 12 13 13 13 13 13 13 13 12 12 12 11 10 9 8 8 6 4 4 3 2 2 1
2 2 4 3 1 2 3 2 1 1 0 1 2 3 4 6 6 8 9 10 10 11 11 12 12 12 12 12 13 14 14 13 12 12 11 9 9 8 6 5 5 3 2 2
1 0 4 2 1 2 1 1 1 1 1 2 1 2 3 2 4 6 7 8 9 10 10 10 10 11 11 12 13 13 13 14 13 12 11 11 10 10 9 7 7 5 3 2
1 1 2 4 4 2 2 2 1 1 1 2 3 0 3 3 4 6 6 7 8 8 8 9 10 11 11 12 12 12 12 12 12 11 11 11 11 11 10 10 9 8 6 5
0 2 2 5 5 4 2 3 1 2 3 3 3 1 2 4 5 5 6 6 6 7 8 9 10 10 10 10 10 11 11 10 10 10 11 11 11 11 11 10 9 8 7 6
2 2 2 3 3 3 4 5 3 3 3 3 3 5 3 4 4 4 4 4 5 5 6 6 7 7 7 7 8 9 9 9 9 9 10 10 10 9 9 9 9 9 8 7
3 2 2 1 1 1 3 4 5 4 2 4 5 6 6 6 5 4 4 4 4 4 4 5 5 5 6 7 7 7 8 8 8 8 9 9 8 8 8 8 9 8 8 8
2 2 3 4 3 3 4 6 5 4 4 6 6 2 3 5 5 4 4 4 3 2 2 3 4 5 5 6 6 7 7 7 7 7 7 7 8 8 8 8 8 8 8 8
1 2 2 2 5 3 4 4 2 1 1 4 4 5 6 5 6 6 5 4 3 2 1 1 2 2 3 3 4 5 5 5 6 6 7 7 7 8 8 8 8 8 8 8
2 3 2 0 3 1 5 2 1 2 1 1 3 5 7 6 5 3 4 5 3 2 1 0 1 2 2 2 3 3 4 4 5 5 6 6 6 7 7 7 8 8 7 7
2 4 3 2 0 4 5 2 2 3 2 2 5 6 5 5 4 1 1 4 4 2 2 1 0 1 2 3 3 3 4 4 5 5 6 6 6 7 7 7 8 6 6 7
3 4 4 2 1 4 4 3 2 3 3 4 7 8 7 7 3 4 3 3 3 2 1 1 0 1 2 3 3 4 5 5 6 6 6 6 6 6 7 7 7 6 6 7
2 2 2 3 3 6 4 3 4 3 6 5 7 8 8 7 5 3 4 3 2 1 1 1 1 2 3 4 3 4 5 6 7 7 7 7 6 7 7 7 6 7 7 8
4 3 3 3 3 6 4 6 7 7 2 5 6 7 7 5 4 4 4 3 2 1 0 0 1 3 4 4 4 5 7 7 7 7 7 8 7 7 7 7 7 7 7 8
5 7 5 7 7 4 5 6 5 5 5 5 6 6 7 6 5 5 4 3 2 2 2 1 2 4 5 5 4 6 7 7 7 7 8 8 8 7 7 7 8 7 6 6
4 3 3 5 7 6 5 4 3 5 6 6 6 7 7 7 6 5 4 3 3 3 2 2 3 4 6 6 6 6 8 8 7 8 9 8 8 8 7 6 6 7 7 7
7 5 4 6 6 4 5 7 7 5 5 6 6 6 7 7 6 5 4 4 3 3 2 2 3 5 7 7 7 7 7 7 8 8 9 8 8 8 8 8 7 8 8 9
6 8 8 8 8 7 7 7 8 8 8 8 7 6 5 6 6 5 4 3 3 3 2 3 4 6 7 7 8 8 7 7 7 8 8 7 7 8 8 9 10 13 14 18
Wind_Direction
159 151 218 218 212 228 260 274 281 281 282 284 275 283 291 294 287 277 269 267 267 268 268 255 244 218 195 195 191 188 189 187 172 173 184 184 193 197 193 191 189 187 185 183
152 237 236 229 235 247 257 273 280 289 289 289 282 284 289 296 288 272 270 270 271 285 298 291 280 238 189 190 192 185 189 190 183 187 189 185 184 192 193 190 189 189 184 182
214 241 243 234 246 252 257 254 264 278 306 290 298 300 312 321 325 329 331 315 312 291 299 320 312 228 163 180 185 176 180 191 193 187 179 178 181 175 190 187 189 194 188 182
240 253 254 247 247 238 265 247 257 278 304 301 312 304 323 336 350 10 5 6 1 354 5 16 24 53 97 146 144 140 154 197 206 185 181 179 192 188 192 182 180 184 187 185
244 238 237 245 242 219 243 272 274 276 281 288 283 259 318 346 357 -0 6 14 11 17 34 47 41 49 57 52 65 94 120 155 221 196 180 176 182 180 165 163 166 175 181 184
242 244 229 238 263 235 250 290 284 258 243 298 314 229 341 357 346 350 8 19 23 35 45 48 45 49 50 46 43 53 75 62 42 76 161 164 170 159 154 166 173 177 179 185
294 269 233 220 278 296 168 13 359 3 5 309 330 63 354 346 350 0 17 25 29 40 45 45 44 46 46 44 39 43 58 55 52 65 78 100 132 135 143 161 169 167 173 184
337 305 248 210 213 236 240 180 182 243 292 330 6 27 346 347 9 28 38 41 43 44 44 45 42 43 44 42 39 43 49 48 46 48 53 55 70 93 89 93 130 148 162 178
221 284 281 242 220 208 236 223 207 191 167 57 14 3 347 7 33 41 45 46 45 46 46 44 41 41 41 39 40 42 45 47 45 43 45 45 44 51 55 58 78 106 112 127
189 270 282 285 309 269 225 238 155 173 131 79 30 7 349 355 24 43 46 48 46 48 48 45 43 42 42 41 42 42 42 43 41 40 40 41 40 39 42 49 47 52 58 66
190 263 304 327 272 278 288 301 255 211 151 136 107 353 345 41 57 64 57 53 51 49 46 44 42 41 42 42 41 40 38 38 36 34 35 36 36 34 36 37 30 26 29 32
234 135 291 279 269 244 227 271 232 153 40 87 121 41 22 91 83 83 72 60 55 53 47 44 42 42 41 40 39 39 36 36 32 31 33 33 32 32 32 28 22 18 17 11
67 92 6 345 342 348 339 320 306 135 105 107 126 176 81 100 90 85 83 71 60 55 49 44 42 40 36 35 35 37 35 32 29 30 32 30 27 26 22 17 13 12 10 5
110 80 156 190 252 293 324 336 352 110 117 128 151 154 159 140 123 105 96 88 73 61 54 49 43 37 35 34 33 32 29 26 27 29 30 28 22 19 15 11 8 6 4 2
99 71 11 326 319 41 23 7 22 59 131 152 163 162 177 169 155 144 129 110 91 74 62 50 41 32 29 29 28 27 24 20 22 26 27 21 13 12 11 8 4 0 360 356
80 105 26 354 359 27 22 6 15 40 74 109 121 155 168 148 137 134 140 130 115 100 75 51 38 29 21 18 17 17 15 11 15 19 16 9 8 8 5 360 357 356 353 348
63 110 76 308 317 6 337 316 344 50 82 150 176 192 154 154 166 170 170 158 155 155 120 61 35 16 3 359 8 6 358 1 8 7 1 358 357 357 354 351 351 348 342 339
127 106 119 10 27 298 266 287 187 118 0 165 150 153 162 167 161 155 162 160 161 160 142 26 0 355 351 354 354 349 354 355 353 349 345 343 343 341 339 341 338 332 328 328
135 138 117 105 28 280 283 243 188 171 283 218 159 150 141 125 95 352 201 163 168 171 169 197 261 318 343 336 327 339 345 344 343 337 331 329 330 329 329 329 323 317 318 317
66 93 117 135 182 238 242 183 149 101 276 227 170 164 159 141 173 239 194 150 138 126 128 127 16 7 342 324 334 348 338 337 330 322 317 315 317 318 317 314 310 308 309 305
7 36 121 172 228 262 239 148 113 166 244 185 169 170 168 184 204 186 151 146 147 143 143 86 35 343 317 322 340 334 325 316 308 310 312 315 315 311 306 307 306 307 307 308
196 192 205 173 212 257 189 145 184 214 175 151 162 168 168 172 148 145 154 159 160 158 287 8 340 317 314 323 331 318 307 300 305 309 310 309 308 308 311 305 303 302 303 305
206 197 197 199 220 250 198 202 209 168 164 171 165 166 157 158 171 175 180 185 202 222 254 275 286 302 308 311 309 300 296 301 304 303 300 299 300 298 297 297 301 303 299 297
271 191 198 259 261 246 230 220 197 179 177 172 162 159 160 169 179 185 189 201 217 233 249 266 290 300 301 304 302 288 294 302 304 303 302 300 300 299 297 293 290 292 292 292
237 195 211 255 268 272 249 216 200 177 156 148 149 160 168 167 180 188 197 212 224 242 262 273 281 287 292 298 298 296 298 303 302 299 298 298 295 293 296 292 285 286 276 278
207 189 191 228 219 200 226 208 181 171 177 172 161 160 165 171 182 186 200 213 224 250 271 286 287 288 293 298 299 301 301 300 298 299 299 298 297 295 293 295 297 292 289 293
Height
1493 1497 1496 1494 1494 1493 1492 1492 1490 1482 1475 1474 1469 1462 1456 1452 1450 1447 1445 1444 1442 1441 1440 1441 1442 1443 1445 1447 1449 1451 1454 1456 1458 1460 1461 1463 1466 1468 1471 1474 1479 1483 1487 1490
1494 1494 1489 1489 1490 1490 1489 1489 1485 1478 1472 1470 1465 1459 1453 1449 1446 1444 1442 1441 1439 1438 1437 1438 1439 1439 1441 1443 1445 1447 1450 1452 1454 1456 1458 1460 1462 1464 1466 1470 1474 1479 1483 1486
1491 1488 1484 1485 1486 1487 1485 1485 1482 1478 1471 1467 1466 1459 1453 1448 1444 1442 1441 1439 1438 1437 1436 1437 1437 1437 1438 1440 1442 1444 1446 1448 1450 1452 1454 1456 1458 1460 1463 1465 1469 1474 1478 1482
1488 1484 1483 1483 1482 1482 1481 1476 1475 1473 1475 1472 1469 1465 1456 1451 1445 1442 1441 1439 1438 1436 1435 1435 1435 1435 1436 1438 1440 1442 1444 1446 1447 1449 1450 1452 1453 1455 1458 1461 1465 1470 1474 1478
1485 1481 1480 1479 1477 1477 1476 1472 1472 1471 1473 1472 1468 1468 1461 1454 1450 1447 1444 1441 1439 1436 1435 1435 1435 1435 1436 1437 1439 1440 1443 1444 1445 1446 1447 1449 1451 1453 1455 1458 1462 1465 1469 1473
1481 1478 1477 1475 1473 1473 1472 1472 1471 1470 1472 1472 1468 1468 1465 1460 1457 1452 1447 1444 1440 1438 1437 1436 1436 1436 1437 1438 1439 1440 1441 1442 1444 1445 1446 1447 1449 1450 1453 1455 1459 1462 1465 1469
1479 1476 1474 1473 1473 1471 1472 1475 1477 1474 1474 1471 1467 1466 1468 1464 1460 1456 1452 1449 1445 1442 1440 1439 1438 1438 1439 1439 1439 1440 1441 1442 1443 1444 1445 1447 1448 1449 1451 1453 1456 1459 1462 1466
1482 1481 1473 1471 1471 1471 1471 1474 1477 1474 1471 1469 1467 1467 1469 1466 1462 1459 1456 1453 1449 1447 1445 1444 1443 1442 1442 1442 1442 1442 1442 1442 1444 1444 1445 1446 1446 1448 1450 1452 1454 1457 1460 1463
1480 1479 1470 1468 1468 1468 1469 1470 1470 1471 1470 1471 1470 1470 1469 1467 1464 1462 1460 1457 1455 1453 1451 1450 1448 1447 1446 1445 1445 1445 1445 1445 1445 1446 1446 1446 1447 1448 1450 1451 1453 1456 1458 1461
1476 1478 1471 1468 1467 1466 1468 1467 1470 1469 1467 1467 1470 1472 1472 1470 1468 1466 1464 1463 1461 1459 1457 1455 1453 1452 1451 1450 1449 1448 1447 1447 1447 1448 1448 1448 1448 1449 1450 1451 1452 1454 1456 1458
1474 1477 1474 1469 1468 1467 1467 1466 1466 1467 1466 1468 1471 1476 1472 1472 1471 1470 1469 1467 1465 1463 1461 1459 1458 1457 1456 1454 1453 1452 1451 1451 1450 1451 1450 1450 1450 1450 1451 1451 1452 1453 1454 1456
1473 1476 1477 1471 1465 1464 1464 1464 1465 1467 1470 1471 1475 1480 1474 1473 1473 1472 1472 1470 1469 1467 1466 1464 1462 1461 1459 1458 1457 1456 1456 1455 1454 1454 1453 1453 1452 1452 1452 1452 1452 1452 1453 1453
1472 1476 1480 1476 1472 1468 1465 1463 1462 1464 1470 1475 1478 1480 1475 1475 1475 1475 1474 1473 1472 1471 1469 1468 1466 1465 1464 1463 1462 1460 1460 1459 1458 1457 1456 1455 1454 1453 1453 1452 1452 1452 1451 1451
1471 1476 1480 1478 1474 1470 1468 1465 1462 1465 1471 1472 1472 1475 1476 1476 1476 1477 1476 1476 1475 1474 1472 1471 1470 1469 1468 1467 1465 1464 1463 1461 1460 1459 1458 1457 1455 1454 1453 1452 1451 1451 1450 1449
1472 1477 1474 1473 1470 1469 1468 1467 1464 1465 1465 1469 1471 1472 1474 1475 1476 1477 1477 1477 1477 1476 1475 1474 1472 1471 1470 1469 1467 1466 1465 1463 1462 1461 1459 1457 1456 1455 1453 1452 1450 1449 1448 1447
1473 1476 1476 1475 1470 1470 1470 1469 1467 1466 1466 1469 1471 1474 1473 1474 1476 1477 1477 1478 1477 1477 1477 1476 1474 1473 1471 1470 1468 1467 1465 1464 1462 1460 1459 1457 1455 1453 1452 1450 1448 1447 1445 1444
1475 1477 1480 1481 1475 1472 1475 1472 1470 1468 1468 1468 1470 1472 1473 1475 1476 1476 1477 1477 1477 1477 1477 1476 1475 1474 1472 1471 1469 1467 1465 1464 1461 1459 1458 1456 1454 1452 1449 1447 1445 1443 1441 1440
1475 1479 1484 1484 1479 1479 1475 1470 1469 1469 1469 1468 1468 1470 1471 1473 1474 1476 1476 1476 1476 1476 1476 1475 1474 1473 1472 1471 1469 1467 1465 1463 1461 1459 1457 1454 1452 1449 1447 1445 1442 1440 1438 1435
1474 1477 1484 1486 1483 1478 1472 1469 1469 1470 1470 1468 1469 1470 1472 1473 1475 1476 1476 1476 1476 1476 1476 1475 1474 1473 1471 1470 1468 1466 1464 1461 1459 1457 1454 1452 1449 1447 1444 1442 1439 1437 1434 1431
1475 1477 1483 1484 1478 1473 1468 1467 1467 1471 1471 1467 1467 1469 1471 1473 1477 1476 1474 1475 1475 1475 1475 1474 1473 1472 1470 1468 1466 1464 1461 1459 1456 1454 1452 1449 1447 1444 1441 1438 1435 1432 1429 1427
1478 1480 1483 1483 1480 1474 1466 1466 1468 1476 1468 1464 1465 1467 1469 1470 1472 1472 1472 1473 1474 1474 1473 1472 1471 1470 1468 1466 1464 1461 1459 1456 1454 1451 1448 1446 1443 1440 1437 1434 1431 1428 1425 1422
1479 1480 1481 1483 1480 1475 1464 1465 1468 1465 1461 1462 1464 1466 1467 1469 1470 1470 1471 1472 1472 1472 1471 1470 1469 1467 1466 1463 1461 1458 1456 1453 1450 1447 1444 1442 1439 1436 1433 1429 1426 1423 1420 1416
1476 1475 1475 1475 1471 1462 1460 1460 1460 1460 1460 1461 1463 1465 1466 1467 1468 1469 1470 1470 1470 1470 1469 1468 1466 1465 1463 1461 1458 1455 1452 1449 1446 1443 1440 1437 1434 1431 1428 1424 1420 1417 1414 1411
1471 1469 1470 1468 1462 1459 1458 1458 1458 1459 1460 1461 1462 1464 1465 1466 1467 1468 1468 1468 1468 1467 1467 1465 1463 1461 1459 1457 1454 1451 1448 1445 1441 1438 1435 1431 1428 1425 1422 1419 1415 1412 1408 1405
1467 1466 1467 1465 1459 1456 1455 1455 1456 1457 1459 1460 1461 1462 1463 1464 1465 1466 1466 1466 1465 1465 1463 1462 1460 1457 1455 1453 1450 1447 1444 1440 1436 1433 1429 1426 1422 1418 1415 1412 1409 1405 1402 1400
1459 1459 1461 1457 1451 1452 1450 1451 1453 1455 1456 1457 1459 1460 1461 1462 1463 1463 1463 1463 1462 1461 1460 1458 1456 1454 1451 1448 1445 1442 1439 1435 1431 1427 1423 1420 1416 1412 1408 1404 1401 1398 1396 1393